Regional Weather Roundup
Issued by NWS

Home | Current Version | Previous Version | Text Only | Print | Product List | Glossary Off
Versions: 1 2 3 4 5 6 7 8 9 10 11 12 13 14 15 16 17 18 19 20 21 22 23 24 25 26 27 28 29 30 31 32 33 34 35 36 37 38 39 40 41 42 43 44 45 46 47 48 49 50

000
ASUS43 KLSX 311507
RWRMO

WEATHER SUMMARY FOR MISSOURI
NATIONAL WEATHER SERVICE SPRINGFIELD MO
1000 AM CDT THU JUL 31 2014

NOTE: "FAIR" INDICATES FEW OR NO CLOUDS BELOW 12,000 FEET WITH NO
       SIGNIFICANT WEATHER AND/OR OBSTRUCTIONS TO VISIBILITY.
       CURRENT SKY AND/OR WEATHER CONDITIONS ARE NOT AVAILABLE FOR
       CHILLICOTHE AND FARMINGTON.

MOZ001>031-035>038-043-044-053-054-311600-
...NORTHERN AND WESTERN MISSOURI...

CITY           SKY/WX    TMP DP  RH WIND       PRES   REMARKS
KANSAS CTY INT PTSUNNY   76  60  57 CALM      30.12S
KANSAS C DTWN  SUNNY     76  61  59 NE3       30.10F
LEE`S SUMMIT   MOSUNNY   74  61  63 VRB3      30.12S
ST JOSEPH      SUNNY     72  61  68 CALM      30.12S
CHILLICOTHE      N/A     74  62  66 S3        30.12S
KIRKSVILLE     SUNNY     75  60  59 W5        30.12F

$$
MOZ066>068-077>081-088>096-101>105-311600-
...SOUTHWEST MISSOURI...

CITY           SKY/WX    TMP DP  RH WIND       PRES   REMARKS
SPRINGFIELD    MOSUNNY   73  63  70 VRB3      30.11S
JOPLIN         PTSUNNY   71  65  81 NE6       30.11S

$$
MOZ032>034-039>042-045>050-055>058-069>072-311600-
...CENTRAL MISSOURI...

CITY           SKY/WX    TMP DP  RH WIND       PRES   REMARKS
COLUMBIA       SUNNY     76  60  57 SE7       30.11S
JEFFERSON CITY SUNNY     73  61  65 SE5       30.10S
ROLLA          SUNNY     75  59  57 SE5       30.10S
SEDALIA        SUNNY     77  59  53 SE8       30.11F
WHITEMAN AFB   MOSUNNY   74  53  49 E2        30.11S
OSAGE BEACH    SUNNY     73  63  68 CALM      30.11S

$$
MOZ051-052-059>065-311600-
...EAST CENTRAL MISSOURI...

CITY           SKY/WX    TMP DP  RH WIND       PRES   REMARKS
ST LOUIS INTL  MOSUNNY   80  61  52 E6        30.10
SPIRIT OF STL  MOSUNNY   76  61  59 E3        30.09S
ST CHARLES     SUNNY     78  64  61 VRB5      30.09S

$$
MOZ072>076-082>087-097>100-106>115-311600-
...SOUTH CENTRAL AND SOUTHEAST MISSOURI...

CITY           SKY/WX    TMP DP  RH WIND       PRES   REMARKS
CAPE GIRARDEAU MOSUNNY   76  65  68 VRB5      30.11S
FARMINGTON     SUNNY     73  64  73 SE3       30.13F
POPLAR BLUFF   CLOUDY    70  63  78 S10       30.10S
WEST PLAINS    CLOUDY    71  64  78 SE6       30.12S

$$



USA.gov is the U.S. government's official web portal to all federal, state and local government web resources and services.